Starlink 30864

operational
NORAD ID: 58243 Int'l Des: 2023-171 Owner: SPXS Country: US Constellation: starlink
LEOCIRCULAR

About Starlink 30864

Description loading...

Live Position

Loading 3D Globe...

Upcoming Passes

Altitude History

Altitude vs Time

uPlot chart will show altitude changes over time

Two-Line Element Set

1 58243U 23171P 26036.20703068 .00000111 00000-0 23272-4 0 9992
2 58243 43.0010 102.1204 0000861 261.7887 98.2858 15.02533071124741
Epoch: Feb 5, 2026 • Age: 13 hours

Current Status

Altitude 567.6 km
Velocity 7.58 km/s
Sub-Earth Point -32.22°S, 18.59°E
Launch Date Nov 8, 2023
Age 2.2 years
Type internet

Technical Details

Classification Payload
Mass 730.00 kg
Dry Mass 700.00 kg
Total Mass 730.00 kg
Length 0.30 m
Diameter 4.10 m
Span 29.00 m
Shape Box + pan
Manufacturer SPXS
Bus Type Starlink V2M
Phase Status In Orbit
Owner/State SPXS/US

Large Constellations

Loading constellations...